Time,TemperatureF,DewpointF,PressureIn,WindDirection,WindDirectionDegrees,WindSpeedMPH,WindSpeedGustMPH,Humidity,HourlyPrecipIn,Conditions,Clouds,dailyrainin,SolarRadiationWatts/m^2,SoftwareType,DateUTC
2013-03-03 00:01:00,50.0,17.0,30.19,West,267,3.0,6.0,25,-99.99,,,-99.99,0.000000,,2013-03-03 07:01:00,
2013-03-03 00:11:00,48.0,17.0,30.18,West,273,4.0,7.0,28,-99.99,,,-99.99,0.000000,,2013-03-03 07:11:00,
2013-03-03 00:21:00,48.0,17.0,30.18,West,273,4.0,7.0,28,-99.99,,,-99.99,0.000000,,2013-03-03 07:21:00,
2013-03-03 00:31:00,48.0,17.0,30.18,West,270,5.0,8.0,28,-99.99,,,-99.99,0.000000,,2013-03-03 07:31:00,
2013-03-03 00:42:00,49.0,17.0,30.18,SW,232,2.0,5.0,27,-99.99,,,-99.99,0.000000,,2013-03-03 07:42:00,
2013-03-03 00:52:00,49.0,17.0,30.18,SW,232,2.0,5.0,27,-99.99,,,-99.99,0.000000,,2013-03-03 07:52:00,
2013-03-03 01:01:00,49.0,17.0,30.18,SSE,166,2.0,4.0,27,-99.99,,,-99.99,0.000000,,2013-03-03 08:01:00,
2013-03-03 01:11:00,47.0,16.0,30.18,SSE,150,1.0,5.0,29,-99.99,,,-99.99,0.000000,,2013-03-03 08:11:00,
2013-03-03 01:21:00,47.0,16.0,30.18,SSE,150,1.0,5.0,29,-99.99,,,-99.99,0.000000,,2013-03-03 08:21:00,
2013-03-03 01:31:00,45.0,16.0,30.18,SSW,212,2.0,5.0,30,-99.99,,,-99.99,0.000000,,2013-03-03 08:31:00,
2013-03-03 01:41:00,48.0,16.0,30.18,West,274,3.0,7.0,27,-99.99,,,-99.99,0.000000,,2013-03-03 08:41:00,
2013-03-03 01:54:00,48.0,16.0,30.17,WNW,287,2.0,6.0,27,-99.99,,,-99.99,0.000000,,2013-03-03 08:54:00,
2013-03-03 02:01:00,48.0,16.0,30.17,WNW,287,2.0,6.0,27,-99.99,,,-99.99,0.000000,,2013-03-03 09:01:00,
2013-03-03 02:11:00,48.0,16.0,30.17,South,174,3.0,8.0,27,-99.99,,,-99.99,0.000000,,2013-03-03 09:11:00,
2013-03-03 02:21:00,48.0,16.0,30.17,South,174,3.0,8.0,27,-99.99,,,-99.99,0.000000,,2013-03-03 09:21:00,
2013-03-03 02:32:00,50.0,15.0,30.17,NNW,331,2.0,5.0,24,-99.99,,,-99.99,0.000000,,2013-03-03 09:32:00,
2013-03-03 02:41:00,50.0,15.0,30.16,West,271,3.0,8.0,25,-99.99,,,-99.99,0.000000,,2013-03-03 09:41:00,
2013-03-03 02:52:00,50.0,15.0,30.16,West,271,3.0,8.0,25,-99.99,,,-99.99,0.000000,,2013-03-03 09:52:00,
2013-03-03 03:01:00,46.0,16.0,30.15,WNW,291,4.0,9.0,29,-99.99,,,-99.99,0.000000,,2013-03-03 10:01:00,
2013-03-03 03:11:00,45.0,16.0,30.14,West,270,2.0,6.0,29,-99.99,,,-99.99,0.000000,,2013-03-03 10:11:00,
2013-03-03 03:21:00,45.0,16.0,30.14,West,270,2.0,6.0,29,-99.99,,,-99.99,0.000000,,2013-03-03 10:21:00,
2013-03-03 03:32:00,46.0,15.0,30.14,WNW,303,3.0,9.0,28,-99.99,,,-99.99,0.000000,,2013-03-03 10:32:00,
2013-03-03 03:42:00,46.0,16.0,30.13,WNW,285,5.0,10.0,29,-99.99,,,-99.99,0.000000,,2013-03-03 10:42:00,
2013-03-03 03:52:00,44.0,16.0,30.13,West,261,3.0,7.0,31,-99.99,,,-99.99,0.000000,,2013-03-03 10:52:00,
2013-03-03 04:01:00,44.0,16.0,30.13,West,261,3.0,7.0,31,-99.99,,,-99.99,0.000000,,2013-03-03 11:01:00,
2013-03-03 04:11:00,44.0,16.0,30.13,West,261,3.0,7.0,31,-99.99,,,-99.99,0.000000,,2013-03-03 11:11:00,
2013-03-03 04:21:00,44.0,16.0,30.13,West,261,3.0,7.0,31,-99.99,,,-99.99,0.000000,,2013-03-03 11:21:00,
2013-03-03 04:32:00,44.0,15.0,30.12,SW,229,2.0,5.0,30,-99.99,,,-99.99,0.000000,,2013-03-03 11:32:00,
2013-03-03 04:42:00,44.0,15.0,30.12,SW,229,2.0,5.0,30,-99.99,,,-99.99,0.000000,,2013-03-03 11:42:00,
2013-03-03 04:52:00,43.0,15.0,30.12,NE,51,2.0,5.0,32,-99.99,,,-99.99,0.000000,,2013-03-03 11:52:00,
2013-03-03 05:01:00,43.0,15.0,30.12,NE,51,2.0,5.0,32,-99.99,,,-99.99,0.000000,,2013-03-03 12:01:00,
2013-03-03 05:11:00,43.0,15.0,30.12,North,356,1.0,3.0,31,-99.99,,,-99.99,0.000000,,2013-03-03 12:11:00,
2013-03-03 05:21:00,43.0,15.0,30.12,North,356,1.0,3.0,31,-99.99,,,-99.99,0.000000,,2013-03-03 12:21:00,
2013-03-03 05:32:00,43.0,15.0,30.12,North,356,1.0,3.0,31,-99.99,,,-99.99,0.000000,,2013-03-03 12:32:00,
2013-03-03 05:43:00,42.0,15.0,30.11,South,169,2.0,9.0,32,-99.99,,,-99.99,0.000000,,2013-03-03 12:43:00,
2013-03-03 05:53:00,42.0,15.0,30.11,South,169,2.0,9.0,32,-99.99,,,-99.99,0.000000,,2013-03-03 12:53:00,
2013-03-03 06:01:00,42.0,15.0,30.11,South,169,2.0,9.0,32,-99.99,,,-99.99,0.000000,,2013-03-03 13:01:00,
2013-03-03 06:11:00,40.0,16.0,30.11,South,178,2.0,4.0,37,-99.99,,,-99.99,0.000000,,2013-03-03 13:11:00,
2013-03-03 06:22:00,40.0,16.0,30.11,South,178,2.0,4.0,37,-99.99,,,-99.99,0.000000,,2013-03-03 13:22:00,
2013-03-03 06:32:00,40.0,16.0,30.11,South,178,2.0,4.0,37,-99.99,,,-99.99,0.000000,,2013-03-03 13:32:00,
2013-03-03 06:42:00,40.0,15.0,30.12,North,358,2.0,5.0,35,-99.99,,,-99.99,0.000000,,2013-03-03 13:42:00,
2013-03-03 06:52:00,40.0,15.0,30.12,North,358,2.0,5.0,35,-99.99,,,-99.99,0.000000,,2013-03-03 13:52:00,
2013-03-03 07:02:00,39.0,15.0,30.12,NW,321,1.0,4.0,38,-99.99,,,-99.99,2.090000,,2013-03-03 14:02:00,
2013-03-03 07:11:00,39.0,15.0,30.12,NW,321,1.0,4.0,38,-99.99,,,-99.99,2.090000,,2013-03-03 14:11:00,
2013-03-03 07:21:00,39.0,15.0,30.12,NW,321,1.0,4.0,38,-99.99,,,-99.99,2.090000,,2013-03-03 14:21:00,
2013-03-03 07:32:00,38.0,16.0,30.12,South,176,2.0,4.0,39,-99.99,,,-99.99,18.129999,,2013-03-03 14:32:00,
2013-03-03 07:42:00,38.0,16.0,30.12,SE,140,3.0,6.0,40,-99.99,,,-99.99,87.860001,,2013-03-03 14:42:00,
2013-03-03 07:52:00,38.0,16.0,30.12,SE,140,3.0,6.0,40,-99.99,,,-99.99,87.860001,,2013-03-03 14:52:00,
2013-03-03 08:01:00,42.0,16.0,30.12,NNW,347,2.0,4.0,35,-99.99,,,-99.99,175.729996,,2013-03-03 15:01:00,
2013-03-03 08:11:00,46.0,16.0,30.12,NW,326,1.0,3.0,28,-99.99,,,-99.99,231.509995,,2013-03-03 15:11:00,
2013-03-03 08:22:00,46.0,16.0,30.12,NW,326,1.0,3.0,28,-99.99,,,-99.99,231.509995,,2013-03-03 15:22:00,
2013-03-03 08:32:00,47.0,15.0,30.12,North,353,1.0,3.0,27,-99.99,,,-99.99,283.809998,,2013-03-03 15:32:00,
2013-03-03 08:42:00,49.0,15.0,30.12,East,83,3.0,5.0,25,-99.99,,,-99.99,339.600006,,2013-03-03 15:42:00,
2013-03-03 08:52:00,49.0,15.0,30.12,East,83,3.0,5.0,25,-99.99,,,-99.99,339.600006,,2013-03-03 15:52:00,
2013-03-03 09:01:00,50.0,15.0,30.12,ENE,74,2.0,4.0,24,-99.99,,,-99.99,401.660004,,2013-03-03 16:01:00,
2013-03-03 09:12:00,51.0,15.0,30.11,ENE,67,3.0,5.0,23,-99.99,,,-99.99,457.450012,,2013-03-03 16:12:00,
2013-03-03 09:22:00,51.0,15.0,30.11,ENE,67,3.0,5.0,23,-99.99,,,-99.99,457.450012,,2013-03-03 16:22:00,
2013-03-03 09:32:00,51.0,15.0,30.11,ENE,70,4.0,8.0,22,-99.99,,,-99.99,511.149994,,2013-03-03 16:32:00,
2013-03-03 09:42:00,52.0,14.0,30.11,NNE,28,3.0,7.0,21,-99.99,,,-99.99,560.659973,,2013-03-03 16:42:00,
2013-03-03 09:52:00,52.0,14.0,30.11,NNE,28,3.0,7.0,21,-99.99,,,-99.99,560.659973,,2013-03-03 16:52:00,
2013-03-03 10:01:00,53.0,14.0,30.11,NNE,18,3.0,5.0,20,-99.99,,,-99.99,603.190002,,2013-03-03 17:01:00,
2013-03-03 10:11:00,55.0,14.0,30.10,NNE,24,3.0,7.0,19,-99.99,,,-99.99,643.640015,,2013-03-03 17:11:00,
2013-03-03 10:22:00,55.0,14.0,30.10,NNE,24,3.0,7.0,19,-99.99,,,-99.99,643.640015,,2013-03-03 17:22:00,
2013-03-03 10:32:00,57.0,14.0,30.10,NE,56,4.0,8.0,17,-99.99,,,-99.99,671.530029,,2013-03-03 17:32:00,
2013-03-03 10:42:00,57.0,14.0,30.10,NE,56,4.0,8.0,17,-99.99,,,-99.99,671.530029,,2013-03-03 17:42:00,
2013-03-03 10:52:00,57.0,14.0,30.10,NE,56,4.0,8.0,17,-99.99,,,-99.99,671.530029,,2013-03-03 17:52:00,
2013-03-03 11:01:00,63.0,12.0,30.08,East,81,6.0,9.0,13,-99.99,,,-99.99,840.979980,,2013-03-03 18:01:00,
2013-03-03 11:11:00,65.0,12.0,30.07,ENE,68,5.0,9.0,12,-99.99,,,-99.99,567.630005,,2013-03-03 18:11:00,
2013-03-03 11:21:00,65.0,12.0,30.07,ENE,68,5.0,9.0,12,-99.99,,,-99.99,567.630005,,2013-03-03 18:21:00,
2013-03-03 11:32:00,68.0,11.0,30.06,North,7,5.0,19.0,10,-99.99,,,-99.99,497.200012,,2013-03-03 18:32:00,
2013-03-03 11:42:00,71.0,8.0,30.05,WSW,247,10.0,21.0,8,-99.99,,,-99.99,482.549988,,2013-03-03 18:42:00,
2013-03-03 11:52:00,71.0,8.0,30.05,WSW,247,10.0,21.0,8,-99.99,,,-99.99,482.549988,,2013-03-03 18:52:00,
2013-03-03 12:02:00,71.0,8.0,30.05,WSW,247,10.0,21.0,8,-99.99,,,-99.99,482.549988,,2013-03-03 19:02:00,
2013-03-03 12:11:00,73.0,7.0,30.03,West,266,7.0,15.0,7,-99.99,,,-99.99,734.289978,,2013-03-03 19:11:00,
2013-03-03 12:22:00,73.0,7.0,30.03,West,266,7.0,15.0,7,-99.99,,,-99.99,734.289978,,2013-03-03 19:22:00,
2013-03-03 12:32:00,74.0,7.0,30.02,WSW,247,9.0,28.0,7,-99.99,,,-99.99,903.049988,,2013-03-03 19:32:00,
2013-03-03 12:42:00,75.0,7.0,30.01,WSW,242,10.0,20.0,7,-99.99,,,-99.99,917.690002,,2013-03-03 19:42:00,
2013-03-03 12:52:00,75.0,7.0,30.01,WSW,242,10.0,20.0,7,-99.99,,,-99.99,917.690002,,2013-03-03 19:52:00,
2013-03-03 13:01:00,74.0,6.0,30.00,WSW,257,14.0,33.0,6,-99.99,,,-99.99,829.130005,,2013-03-03 20:01:00,
2013-03-03 13:11:00,73.0,7.0,29.99,WSW,251,15.0,27.0,7,-99.99,,,-99.99,800.539978,,2013-03-03 20:11:00,
2013-03-03 13:21:00,73.0,7.0,29.99,WSW,251,15.0,27.0,7,-99.99,,,-99.99,800.539978,,2013-03-03 20:21:00,
2013-03-03 13:32:00,73.0,7.0,29.99,WSW,251,15.0,27.0,7,-99.99,,,-99.99,800.539978,,2013-03-03 20:32:00,
2013-03-03 13:42:00,74.0,8.0,29.97,SW,223,5.0,16.0,7,-99.99,,,-99.99,837.500000,,2013-03-03 20:42:00,
2013-03-03 13:53:00,74.0,8.0,29.97,SW,223,5.0,16.0,7,-99.99,,,-99.99,837.500000,,2013-03-03 20:53:00,
2013-03-03 14:02:00,74.0,6.0,29.96,WSW,245,13.0,29.0,7,-99.99,,,-99.99,827.039978,,2013-03-03 21:02:00,
2013-03-03 14:11:00,75.0,6.0,29.94,SW,233,15.0,32.0,6,-99.99,,,-99.99,763.580017,,2013-03-03 21:11:00,
2013-03-03 14:22:00,75.0,6.0,29.94,SW,233,15.0,32.0,6,-99.99,,,-99.99,763.580017,,2013-03-03 21:22:00,
2013-03-03 14:32:00,76.0,3.0,29.92,SW,234,18.0,39.0,5,-99.99,,,-99.99,795.659973,,2013-03-03 21:32:00,
2013-03-03 14:42:00,76.0,3.0,29.92,WSW,258,16.0,37.0,5,-99.99,,,-99.99,735.690002,,2013-03-03 21:42:00,
2013-03-03 14:52:00,75.0,2.0,29.91,West,269,22.0,41.0,5,-99.99,,,-99.99,698.030029,,2013-03-03 21:52:00,
2013-03-03 15:01:00,75.0,2.0,29.91,West,269,22.0,41.0,5,-99.99,,,-99.99,698.030029,,2013-03-03 22:01:00,
2013-03-03 15:11:00,75.0,4.0,29.90,West,260,20.0,40.0,6,-99.99,,,-99.99,509.750000,,2013-03-03 22:11:00,
2013-03-03 15:22:00,75.0,4.0,29.90,West,260,20.0,40.0,6,-99.99,,,-99.99,509.750000,,2013-03-03 22:22:00,
2013-03-03 15:32:00,75.0,4.0,29.90,West,260,20.0,40.0,6,-99.99,,,-99.99,509.750000,,2013-03-03 22:32:00,
2013-03-03 15:42:00,76.0,5.0,29.88,West,259,21.0,36.0,6,-99.99,,,-99.99,557.869995,,2013-03-03 22:42:00,
2013-03-03 15:52:00,76.0,5.0,29.88,West,259,21.0,36.0,6,-99.99,,,-99.99,557.869995,,2013-03-03 22:52:00,
2013-03-03 16:01:00,76.0,4.0,29.88,West,269,22.0,45.0,5,-99.99,,,-99.99,376.559998,,2013-03-03 23:01:00,
2013-03-03 16:11:00,76.0,3.0,29.88,West,268,19.0,35.0,5,-99.99,,,-99.99,408.640015,,2013-03-03 23:11:00,
2013-03-03 16:21:00,76.0,3.0,29.88,West,268,19.0,35.0,5,-99.99,,,-99.99,408.640015,,2013-03-03 23:21:00,
2013-03-03 16:32:00,76.0,3.0,29.88,West,268,19.0,35.0,5,-99.99,,,-99.99,408.640015,,2013-03-03 23:32:00,
2013-03-03 16:42:00,76.0,0.0,29.87,West,280,25.0,46.0,4,-99.99,,,-99.99,361.220001,,2013-03-03 23:42:00,
2013-03-03 16:52:00,76.0,0.0,29.87,West,280,25.0,46.0,4,-99.99,,,-99.99,361.220001,,2013-03-03 23:52:00,
2013-03-03 17:01:00,74.0,0.0,29.88,West,271,25.0,41.0,5,-99.99,,,-99.99,117.849998,,2013-03-04 00:01:00,
2013-03-03 17:11:00,73.0,0.0,29.87,West,268,26.0,44.0,5,-99.99,,,-99.99,88.559998,,2013-03-04 00:11:00,
2013-03-03 17:21:00,73.0,0.0,29.87,West,268,26.0,44.0,5,-99.99,,,-99.99,88.559998,,2013-03-04 00:21:00,
2013-03-03 17:32:00,73.0,1.0,29.87,West,272,23.0,45.0,5,-99.99,,,-99.99,69.730003,,2013-03-04 00:32:00,
2013-03-03 17:42:00,73.0,2.0,29.87,West,267,25.0,48.0,5,-99.99,,,-99.99,55.790001,,2013-03-04 00:42:00,
2013-03-03 17:52:00,73.0,2.0,29.87,West,267,25.0,48.0,5,-99.99,,,-99.99,55.790001,,2013-03-04 00:52:00,
2013-03-03 18:01:00,72.0,0.0,29.87,West,264,26.0,48.0,5,-99.99,,,-99.99,31.379999,,2013-03-04 01:01:00,
2013-03-03 18:11:00,72.0,0.0,29.88,West,261,26.0,46.0,5,-99.99,,,-99.99,17.430000,,2013-03-04 01:11:00,
2013-03-03 18:21:00,72.0,0.0,29.88,West,261,26.0,46.0,5,-99.99,,,-99.99,17.430000,,2013-03-04 01:21:00,
2013-03-03 18:32:00,71.0,2.0,29.88,West,270,27.0,43.0,6,-99.99,,,-99.99,5.580000,,2013-03-04 01:32:00,
2013-03-03 18:42:00,71.0,4.0,29.88,West,268,26.0,49.0,6,-99.99,,,-99.99,0.700000,,2013-03-04 01:42:00,
2013-03-03 18:52:00,71.0,4.0,29.88,West,268,26.0,49.0,6,-99.99,,,-99.99,0.700000,,2013-03-04 01:52:00,
2013-03-03 19:01:00,71.0,4.0,29.88,West,268,26.0,49.0,6,-99.99,,,-99.99,0.700000,,2013-03-04 02:01:00,
2013-03-03 19:11:00,71.0,5.0,29.89,West,274,28.0,53.0,7,-99.99,,,-99.99,0.000000,,2013-03-04 02:11:00,
2013-03-03 19:22:00,71.0,5.0,29.89,West,274,28.0,53.0,7,-99.99,,,-99.99,0.000000,,2013-03-04 02:22:00,
2013-03-03 19:32:00,70.0,6.0,29.89,West,276,25.0,45.0,7,-99.99,,,-99.99,0.000000,,2013-03-04 02:32:00,
2013-03-03 19:42:00,70.0,6.0,29.89,West,279,25.0,41.0,7,-99.99,,,-99.99,0.000000,,2013-03-04 02:42:00,
2013-03-03 19:52:00,70.0,7.0,29.89,West,280,25.0,43.0,8,-99.99,,,-99.99,0.000000,,2013-03-04 02:52:00,
2013-03-03 20:01:00,70.0,7.0,29.89,West,280,25.0,43.0,8,-99.99,,,-99.99,0.000000,,2013-03-04 03:01:00,
2013-03-03 20:11:00,70.0,8.0,29.89,West,276,28.0,48.0,8,-99.99,,,-99.99,0.000000,,2013-03-04 03:11:00,
2013-03-03 20:21:00,70.0,8.0,29.89,West,276,28.0,48.0,8,-99.99,,,-99.99,0.000000,,2013-03-04 03:21:00,
2013-03-03 20:32:00,69.0,9.0,29.90,West,280,25.0,42.0,9,-99.99,,,-99.99,0.000000,,2013-03-04 03:32:00,
2013-03-03 20:42:00,69.0,10.0,29.90,WNW,286,23.0,39.0,10,-99.99,,,-99.99,0.000000,,2013-03-04 03:42:00,
2013-03-03 20:52:00,69.0,10.0,29.90,WNW,286,23.0,39.0,10,-99.99,,,-99.99,0.000000,,2013-03-04 03:52:00,
2013-03-03 21:01:00,69.0,11.0,29.90,WNW,282,20.0,30.0,10,-99.99,,,-99.99,0.000000,,2013-03-04 04:01:00,
2013-03-03 21:11:00,69.0,11.0,29.90,West,276,24.0,42.0,10,-99.99,,,-99.99,0.000000,,2013-03-04 04:11:00,
2013-03-03 21:22:00,69.0,11.0,29.90,West,276,24.0,42.0,10,-99.99,,,-99.99,0.000000,,2013-03-04 04:22:00,
2013-03-03 21:32:00,69.0,10.0,29.90,West,275,27.0,47.0,10,-99.99,,,-99.99,0.000000,,2013-03-04 04:32:00,
2013-03-03 21:42:00,69.0,7.0,29.90,West,278,30.0,49.0,8,-99.99,,,-99.99,0.000000,,2013-03-04 04:42:00,
2013-03-03 21:52:00,69.0,7.0,29.90,West,278,30.0,49.0,8,-99.99,,,-99.99,0.000000,,2013-03-04 04:52:00,
2013-03-03 22:01:00,68.0,7.0,29.90,West,277,30.0,49.0,9,-99.99,,,-99.99,0.000000,,2013-03-04 05:01:00,
2013-03-03 22:11:00,68.0,7.0,29.90,West,277,30.0,49.0,9,-99.99,,,-99.99,0.000000,,2013-03-04 05:11:00,
2013-03-03 22:22:00,68.0,7.0,29.90,West,277,30.0,49.0,9,-99.99,,,-99.99,0.000000,,2013-03-04 05:22:00,
2013-03-03 22:31:00,68.0,9.0,29.92,WNW,284,30.0,50.0,10,-99.99,,,-99.99,0.000000,,2013-03-04 05:31:00,
2013-03-03 22:42:00,68.0,9.0,29.92,WNW,289,27.0,53.0,9,-99.99,,,-99.99,0.000000,,2013-03-04 05:42:00,
2013-03-03 22:52:00,68.0,9.0,29.92,WNW,289,27.0,53.0,9,-99.99,,,-99.99,0.000000,,2013-03-04 05:52:00,
2013-03-03 23:01:00,67.0,9.0,29.90,WNW,285,28.0,46.0,9,-99.99,,,-99.99,0.000000,,2013-03-04 06:01:00,
2013-03-03 23:11:00,67.0,8.0,29.89,WNW,282,31.0,51.0,9,-99.99,,,-99.99,0.000000,,2013-03-04 06:11:00,
2013-03-03 23:21:00,67.0,8.0,29.89,WNW,282,31.0,51.0,9,-99.99,,,-99.99,0.000000,,2013-03-04 06:21:00,
2013-03-03 23:32:00,67.0,8.0,29.90,WNW,282,30.0,47.0,9,-99.99,,,-99.99,0.000000,,2013-03-04 06:32:00,
2013-03-03 23:42:00,67.0,8.0,29.90,WNW,283,29.0,45.0,10,-99.99,,,-99.99,0.000000,,2013-03-04 06:42:00,
2013-03-03 23:52:00,67.0,8.0,29.90,WNW,283,29.0,45.0,10,-99.99,,,-99.99,0.000000,,2013-03-04 06:52:00,